Time,TemperatureF,DewpointF,PressureIn,WindDirection,WindDirectionDegrees,WindSpeedMPH,WindSpeedGustMPH,Humidity,HourlyPrecipIn,Conditions,Clouds,dailyrainin,SoftwareType,DateUTC
2013-05-14 00:08:00,69.3,32.0,30.15,North,-999,0.0,0.0,25,0.00,,,-99.99,FreeWX 2.05,2013-05-14 04:08:00,
2013-05-14 00:18:00,68.9,32.5,30.15,North,-999,0.0,0.0,26,0.00,,,-99.99,FreeWX 2.05,2013-05-14 04:18:00,
2013-05-14 00:28:00,68.7,32.4,30.15,North,-999,0.0,0.0,26,0.00,,,-99.99,FreeWX 2.05,2013-05-14 04:28:00,
2013-05-14 00:38:00,68.5,33.3,30.15,North,-999,0.0,0.0,27,0.00,,,-99.99,FreeWX 2.05,2013-05-14 04:38:00,
2013-05-14 00:48:00,68.5,34.2,30.15,North,-999,0.0,2.7,28,0.00,,,-99.99,FreeWX 2.05,2013-05-14 04:48:00,
2013-05-14 00:58:00,68.5,34.2,30.15,North,-999,0.0,0.0,28,0.00,,,-99.99,FreeWX 2.05,2013-05-14 04:58:00,
2013-05-14 01:08:00,68.5,32.4,30.15,WSW,237,1.0,4.0,26,0.00,,,-99.99,FreeWX 2.05,2013-05-14 05:08:00,
2013-05-14 01:18:00,68.5,30.4,30.15,WSW,244,1.0,4.0,24,0.00,,,-99.99,FreeWX 2.05,2013-05-14 05:18:00,
2013-05-14 01:28:00,68.7,29.5,30.15,North,-999,0.0,4.0,23,0.00,,,-99.99,FreeWX 2.05,2013-05-14 05:28:00,
2013-05-14 01:38:00,68.5,29.3,30.15,North,-999,0.0,3.6,23,0.00,,,-99.99,FreeWX 2.05,2013-05-14 05:38:00,
2013-05-14 01:48:00,68.2,28.9,30.15,SW,218,1.0,4.0,23,0.00,,,-99.99,FreeWX 2.05,2013-05-14 05:48:00,
2013-05-14 01:58:00,68.0,28.8,30.15,SW,226,1.0,4.0,23,0.00,,,-99.99,FreeWX 2.05,2013-05-14 05:58:00,
2013-05-14 02:08:00,68.0,27.7,30.15,North,-999,0.0,3.6,22,0.00,,,-99.99,FreeWX 2.05,2013-05-14 06:08:00,
2013-05-14 02:18:00,67.8,27.5,30.15,North,-999,0.0,3.1,22,0.00,,,-99.99,FreeWX 2.05,2013-05-14 06:18:00,
2013-05-14 02:28:00,67.6,27.5,30.15,North,-999,0.0,2.7,22,0.00,,,-99.99,FreeWX 2.05,2013-05-14 06:28:00,
2013-05-14 02:38:00,67.5,27.3,30.15,North,-999,0.0,3.1,22,0.00,,,-99.99,FreeWX 2.05,2013-05-14 06:38:00,
2013-05-14 02:48:00,67.3,27.1,30.15,North,-999,0.0,3.1,22,0.00,,,-99.99,FreeWX 2.05,2013-05-14 06:48:00,
2013-05-14 02:58:00,67.3,27.1,30.15,North,-999,0.0,3.1,22,0.00,,,-99.99,FreeWX 2.05,2013-05-14 06:58:00,
2013-05-14 03:08:00,67.1,28.0,30.18,North,-999,0.0,4.0,23,0.00,,,-99.99,FreeWX 2.05,2013-05-14 07:08:00,
2013-05-14 03:18:00,66.9,27.9,30.18,North,-999,0.0,0.0,23,0.00,,,-99.99,FreeWX 2.05,2013-05-14 07:18:00,
2013-05-14 03:28:00,66.9,27.9,30.18,North,-999,0.0,3.1,23,0.00,,,-99.99,FreeWX 2.05,2013-05-14 07:28:00,
2013-05-14 03:38:00,66.7,27.7,30.15,North,-999,0.0,3.1,23,0.00,,,-99.99,FreeWX 2.05,2013-05-14 07:38:00,
2013-05-14 03:48:00,66.6,27.7,30.15,North,-999,0.0,2.7,23,0.00,,,-99.99,FreeWX 2.05,2013-05-14 07:48:00,
2013-05-14 03:58:00,66.6,26.6,30.15,North,-999,0.0,3.6,22,0.00,,,-99.99,FreeWX 2.05,2013-05-14 07:58:00,
2013-05-14 04:08:00,66.4,26.4,30.15,North,-999,0.0,3.1,22,0.00,,,-99.99,FreeWX 2.05,2013-05-14 08:08:00,
2013-05-14 04:18:00,66.2,26.2,30.15,North,-999,0.0,3.6,22,0.00,,,-99.99,FreeWX 2.05,2013-05-14 08:18:00,
2013-05-14 04:28:00,66.2,26.2,30.15,North,-999,0.0,4.5,22,0.00,,,-99.99,FreeWX 2.05,2013-05-14 08:28:00,
2013-05-14 04:38:00,65.8,25.9,30.18,North,-999,0.0,3.1,22,0.00,,,-99.99,FreeWX 2.05,2013-05-14 08:38:00,
2013-05-14 04:48:00,65.7,25.7,30.18,North,-999,0.0,3.1,22,0.00,,,-99.99,FreeWX 2.05,2013-05-14 08:48:00,
2013-05-14 04:58:00,65.3,26.6,30.18,North,-999,0.0,3.1,23,0.00,,,-99.99,FreeWX 2.05,2013-05-14 08:58:00,
2013-05-14 05:08:00,64.9,26.2,30.18,North,-999,0.0,3.6,23,0.00,,,-99.99,FreeWX 2.05,2013-05-14 09:08:00,
2013-05-14 05:18:00,64.6,25.9,30.18,North,-999,0.0,3.6,23,0.00,,,-99.99,FreeWX 2.05,2013-05-14 09:18:00,
2013-05-14 05:28:00,64.4,25.9,30.18,North,-999,0.0,2.7,23,0.00,,,-99.99,FreeWX 2.05,2013-05-14 09:28:00,
2013-05-14 05:38:00,64.0,25.5,30.18,North,-999,0.0,0.0,23,0.00,,,-99.99,FreeWX 2.05,2013-05-14 09:38:00,
2013-05-14 05:48:00,63.7,25.2,30.18,North,-999,0.0,0.0,23,0.00,,,-99.99,FreeWX 2.05,2013-05-14 09:48:00,
2013-05-14 05:58:00,63.5,25.0,30.18,North,-999,0.0,3.1,23,0.00,,,-99.99,FreeWX 2.05,2013-05-14 09:58:00,
2013-05-14 06:08:00,63.1,24.8,30.18,North,-999,0.0,2.7,23,0.00,,,-99.99,FreeWX 2.05,2013-05-14 10:08:00,
2013-05-14 06:18:00,63.0,24.6,30.18,North,-999,0.0,4.0,23,0.00,,,-99.99,FreeWX 2.05,2013-05-14 10:18:00,
2013-05-14 06:28:00,63.0,24.6,30.18,North,-999,0.0,3.6,23,0.00,,,-99.99,FreeWX 2.05,2013-05-14 10:28:00,
2013-05-14 06:38:00,63.0,24.6,30.18,North,-999,0.0,3.1,23,0.00,,,-99.99,FreeWX 2.05,2013-05-14 10:38:00,
2013-05-14 06:48:00,63.0,24.6,30.18,North,-999,0.0,3.1,23,0.00,,,-99.99,FreeWX 2.05,2013-05-14 10:48:00,
2013-05-14 06:58:00,63.0,25.7,30.18,North,-999,0.0,2.7,24,0.00,,,-99.99,FreeWX 2.05,2013-05-14 10:58:00,
2013-05-14 07:08:00,62.8,25.5,30.21,North,-999,0.0,3.1,24,0.00,,,-99.99,FreeWX 2.05,2013-05-14 11:08:00,
2013-05-14 07:18:00,62.6,25.3,30.21,North,-999,0.0,3.1,24,0.00,,,-99.99,FreeWX 2.05,2013-05-14 11:18:00,
2013-05-14 07:28:00,62.8,25.5,30.21,North,-999,0.0,2.7,24,0.00,,,-99.99,FreeWX 2.05,2013-05-14 11:28:00,
2013-05-14 07:38:00,63.0,25.7,30.21,North,-999,0.0,0.0,24,0.00,,,-99.99,FreeWX 2.05,2013-05-14 11:38:00,
2013-05-14 07:48:00,63.3,25.9,30.21,North,-999,0.0,0.0,24,0.00,,,-99.99,FreeWX 2.05,2013-05-14 11:48:00,
2013-05-14 07:58:00,63.9,26.4,30.21,North,-999,0.0,3.1,24,0.00,,,-99.99,FreeWX 2.05,2013-05-14 11:58:00,
2013-05-14 08:08:00,64.6,27.0,30.21,North,-999,0.0,3.1,24,0.00,,,-99.99,FreeWX 2.05,2013-05-14 12:08:00,
2013-05-14 08:18:00,65.5,27.7,30.21,North,-999,0.0,3.1,24,0.00,,,-99.99,FreeWX 2.05,2013-05-14 12:18:00,
2013-05-14 08:28:00,66.2,28.4,30.21,North,-999,0.0,3.6,24,0.00,,,-99.99,FreeWX 2.05,2013-05-14 12:28:00,
2013-05-14 08:38:00,66.9,27.9,30.21,North,-999,0.0,4.5,23,0.00,,,-99.99,FreeWX 2.05,2013-05-14 12:38:00,
2013-05-14 08:48:00,67.8,27.5,30.21,WSW,254,2.0,4.5,22,0.00,,,-99.99,FreeWX 2.05,2013-05-14 12:48:00,
2013-05-14 08:58:00,68.7,28.4,30.21,WSW,253,1.0,4.5,22,0.00,,,-99.99,FreeWX 2.05,2013-05-14 12:58:00,
2013-05-14 09:08:00,69.3,28.8,30.21,WSW,251,2.0,4.5,22,0.00,,,-99.99,FreeWX 2.05,2013-05-14 13:08:00,
2013-05-14 09:18:00,70.0,29.3,30.21,WSW,244,2.0,4.5,22,0.00,,,-99.99,FreeWX 2.05,2013-05-14 13:18:00,
2013-05-14 09:28:00,70.7,28.8,30.21,WSW,242,2.0,4.9,21,0.00,,,-99.99,FreeWX 2.05,2013-05-14 13:28:00,
2013-05-14 09:38:00,71.2,29.3,30.21,WSW,244,2.0,5.8,21,0.00,,,-99.99,FreeWX 2.05,2013-05-14 13:38:00,
2013-05-14 09:48:00,71.8,27.3,30.21,WSW,241,2.0,5.4,19,0.00,,,-99.99,FreeWX 2.05,2013-05-14 13:48:00,
2013-05-14 09:58:00,72.5,27.9,30.21,WSW,245,3.0,5.4,19,0.00,,,-99.99,FreeWX 2.05,2013-05-14 13:58:00,
2013-05-14 10:08:00,73.0,27.0,30.21,WSW,244,3.0,5.4,18,0.00,,,-99.99,FreeWX 2.05,2013-05-14 14:08:00,
2013-05-14 10:18:00,73.8,27.7,30.21,WSW,246,2.0,5.4,18,0.00,,,-99.99,FreeWX 2.05,2013-05-14 14:18:00,
2013-05-14 10:28:00,74.1,27.9,30.21,WSW,245,3.0,5.8,18,0.00,,,-99.99,FreeWX 2.05,2013-05-14 14:28:00,
2013-05-14 10:38:00,74.5,28.2,30.21,WSW,249,3.0,5.4,18,0.00,,,-99.99,FreeWX 2.05,2013-05-14 14:38:00,
2013-05-14 10:48:00,74.8,28.4,30.21,West,259,3.0,6.3,18,0.00,,,-99.99,FreeWX 2.05,2013-05-14 14:48:00,
2013-05-14 10:58:00,75.4,28.9,30.21,WSW,246,2.0,4.9,18,0.00,,,-99.99,FreeWX 2.05,2013-05-14 14:58:00,
2013-05-14 11:08:00,75.7,29.3,30.21,West,259,3.0,6.3,18,0.00,,,-99.99,FreeWX 2.05,2013-05-14 15:08:00,
2013-05-14 11:18:00,76.5,29.8,30.21,WSW,256,2.0,4.9,18,0.00,,,-99.99,FreeWX 2.05,2013-05-14 15:18:00,
2013-05-14 11:28:00,76.8,25.7,30.21,WSW,238,2.0,4.9,15,0.00,,,-99.99,FreeWX 2.05,2013-05-14 15:28:00,
2013-05-14 11:38:00,77.5,26.2,30.21,WSW,238,2.0,4.9,15,0.00,,,-99.99,FreeWX 2.05,2013-05-14 15:38:00,
2013-05-14 11:48:00,77.7,26.4,30.21,WSW,255,2.0,5.4,15,0.00,,,-99.99,FreeWX 2.05,2013-05-14 15:48:00,
2013-05-14 11:58:00,78.3,26.8,30.21,West,264,2.0,5.8,15,0.00,,,-99.99,FreeWX 2.05,2013-05-14 15:58:00,
2013-05-14 12:08:00,78.8,27.3,30.21,WSW,253,1.0,4.5,15,0.00,,,-99.99,FreeWX 2.05,2013-05-14 16:08:00,
2013-05-14 12:18:00,79.5,27.9,30.21,West,263,1.0,4.0,15,0.00,,,-99.99,FreeWX 2.05,2013-05-14 16:18:00,
2013-05-14 12:28:00,79.9,26.4,30.21,South,190,1.0,4.9,14,0.00,,,-99.99,FreeWX 2.05,2013-05-14 16:28:00,
2013-05-14 12:38:00,80.1,26.6,30.21,SW,234,2.0,4.5,14,0.00,,,-99.99,FreeWX 2.05,2013-05-14 16:38:00,
2013-05-14 12:48:00,80.4,26.8,30.21,West,264,1.0,4.9,14,0.00,,,-99.99,FreeWX 2.05,2013-05-14 16:48:00,
2013-05-14 12:58:00,80.6,27.0,30.21,WSW,238,2.0,4.9,14,0.00,,,-99.99,FreeWX 2.05,2013-05-14 16:58:00,
2013-05-14 13:08:00,81.0,27.3,30.21,WSW,240,2.0,4.9,14,0.00,,,-99.99,FreeWX 2.05,2013-05-14 17:08:00,
2013-05-14 13:18:00,81.3,27.5,30.21,WSW,237,2.0,5.4,14,0.00,,,-99.99,FreeWX 2.05,2013-05-14 17:18:00,
2013-05-14 13:28:00,81.1,27.5,30.21,West,275,3.0,5.4,14,0.00,,,-99.99,FreeWX 2.05,2013-05-14 17:28:00,
2013-05-14 13:38:00,81.3,27.5,30.21,WSW,243,2.0,4.5,14,0.00,,,-99.99,FreeWX 2.05,2013-05-14 17:38:00,
2013-05-14 13:48:00,81.9,28.0,30.21,SW,235,1.0,4.9,14,0.00,,,-99.99,FreeWX 2.05,2013-05-14 17:48:00,
2013-05-14 13:58:00,81.7,27.9,30.21,South,175,4.0,11.0,14,0.00,,,-99.99,FreeWX 2.05,2013-05-14 17:58:00,
2013-05-14 14:08:00,81.9,28.0,30.21,SSE,161,4.0,9.6,14,0.00,,,-99.99,FreeWX 2.05,2013-05-14 18:08:00,
2013-05-14 14:18:00,82.6,28.6,30.21,SE,134,5.0,9.2,14,0.00,,,-99.99,FreeWX 2.05,2013-05-14 18:18:00,
2013-05-14 14:28:00,82.4,28.4,30.21,SE,145,3.0,10.1,14,0.00,,,-99.99,FreeWX 2.05,2013-05-14 18:28:00,
2013-05-14 14:38:00,82.8,28.8,30.21,SSE,159,4.0,10.5,14,0.00,,,-99.99,FreeWX 2.05,2013-05-14 18:38:00,
2013-05-14 14:48:00,82.9,28.8,30.21,SSE,150,4.0,10.5,14,0.00,,,-99.99,FreeWX 2.05,2013-05-14 18:48:00,
2013-05-14 14:58:00,83.1,28.9,30.21,SSE,165,3.0,9.2,14,0.00,,,-99.99,FreeWX 2.05,2013-05-14 18:58:00,
2013-05-14 15:08:00,82.8,28.8,30.18,SSE,157,4.0,10.1,14,0.00,,,-99.99,FreeWX 2.05,2013-05-14 19:08:00,
2013-05-14 15:18:00,83.1,28.9,30.18,SE,140,4.0,9.6,14,0.00,,,-99.99,FreeWX 2.05,2013-05-14 19:18:00,
2013-05-14 15:28:00,82.4,28.4,30.18,South,178,4.0,9.6,14,0.00,,,-99.99,FreeWX 2.05,2013-05-14 19:28:00,
2013-05-14 15:38:00,82.4,28.4,30.18,South,179,3.0,9.2,14,0.00,,,-99.99,FreeWX 2.05,2013-05-14 19:38:00,
2013-05-14 15:48:00,82.4,28.4,30.18,SSE,166,3.0,11.0,14,0.00,,,-99.99,FreeWX 2.05,2013-05-14 19:48:00,
2013-05-14 15:58:00,82.0,28.0,30.18,South,187,3.0,9.2,14,0.00,,,-99.99,FreeWX 2.05,2013-05-14 19:58:00,
2013-05-14 16:08:00,81.5,27.7,30.18,SSW,195,3.0,9.6,14,0.00,,,-99.99,FreeWX 2.05,2013-05-14 20:08:00,
2013-05-14 16:18:00,81.1,27.5,30.18,SSW,197,3.0,7.8,14,0.00,,,-99.99,FreeWX 2.05,2013-05-14 20:18:00,
2013-05-14 16:28:00,81.1,27.5,30.18,SSW,202,2.0,6.9,14,0.00,,,-99.99,FreeWX 2.05,2013-05-14 20:28:00,
2013-05-14 16:38:00,81.3,27.5,30.18,SSE,166,4.0,9.6,14,0.00,,,-99.99,FreeWX 2.05,2013-05-14 20:38:00,
2013-05-14 16:48:00,80.8,27.1,30.18,SSE,157,4.0,11.0,14,0.00,,,-99.99,FreeWX 2.05,2013-05-14 20:48:00,
2013-05-14 16:58:00,80.4,26.8,30.18,South,176,4.0,8.3,14,0.00,,,-99.99,FreeWX 2.05,2013-05-14 20:58:00,
2013-05-14 17:08:00,79.9,26.4,30.15,South,174,4.0,10.1,14,0.00,,,-99.99,FreeWX 2.05,2013-05-14 21:08:00,
2013-05-14 17:18:00,79.7,28.0,30.15,SSE,148,4.0,8.7,15,0.00,,,-99.99,FreeWX 2.05,2013-05-14 21:18:00,
2013-05-14 17:28:00,79.0,27.3,30.15,SW,219,3.0,7.8,15,0.00,,,-99.99,FreeWX 2.05,2013-05-14 21:28:00,
2013-05-14 17:38:00,79.0,27.3,30.15,SSE,155,4.0,10.5,15,0.00,,,-99.99,FreeWX 2.05,2013-05-14 21:38:00,
2013-05-14 17:48:00,79.2,27.5,30.15,SE,132,4.0,11.0,15,0.00,,,-99.99,FreeWX 2.05,2013-05-14 21:48:00,
2013-05-14 17:58:00,78.8,27.3,30.15,South,175,3.0,14.3,15,0.00,,,-99.99,FreeWX 2.05,2013-05-14 21:58:00,
2013-05-14 18:08:00,78.6,27.1,30.15,South,186,3.0,9.6,15,0.00,,,-99.99,FreeWX 2.05,2013-05-14 22:08:00,
2013-05-14 18:18:00,78.1,26.6,30.15,South,185,3.0,8.7,15,0.00,,,-99.99,FreeWX 2.05,2013-05-14 22:18:00,
2013-05-14 18:28:00,77.7,26.4,30.15,SSW,197,2.0,6.9,15,0.00,,,-99.99,FreeWX 2.05,2013-05-14 22:28:00,
2013-05-14 18:38:00,77.5,30.7,30.15,SSW,192,2.0,8.7,18,0.00,,,-99.99,FreeWX 2.05,2013-05-14 22:38:00,
2013-05-14 18:48:00,76.8,30.0,30.15,SSE,152,3.0,7.8,18,0.00,,,-99.99,FreeWX 2.05,2013-05-14 22:48:00,
2013-05-14 18:58:00,76.6,30.0,30.15,SW,220,3.0,6.3,18,0.00,,,-99.99,FreeWX 2.05,2013-05-14 22:58:00,
2013-05-14 19:08:00,76.5,29.8,30.15,SSE,167,2.0,6.3,18,0.00,,,-99.99,FreeWX 2.05,2013-05-14 23:08:00,
2013-05-14 19:18:00,76.3,32.2,30.15,SSW,198,2.0,6.3,20,0.00,,,-99.99,FreeWX 2.05,2013-05-14 23:18:00,
2013-05-14 19:28:00,75.7,31.8,30.15,SSW,211,3.0,6.3,20,0.00,,,-99.99,FreeWX 2.05,2013-05-14 23:28:00,
2013-05-14 19:38:00,75.2,31.3,30.15,SSW,208,3.0,6.9,20,0.00,,,-99.99,FreeWX 2.05,2013-05-14 23:38:00,
2013-05-14 19:48:00,74.8,32.4,30.15,South,180,2.0,9.2,21,0.00,,,-99.99,FreeWX 2.05,2013-05-14 23:48:00,
2013-05-14 19:58:00,74.7,32.2,30.15,SSW,195,2.0,7.8,21,0.00,,,-99.99,FreeWX 2.05,2013-05-14 23:58:00,
2013-05-14 20:08:00,74.3,32.9,30.15,South,186,2.0,7.8,22,0.00,,,-99.99,FreeWX 2.05,2013-05-15 00:08:00,
2013-05-14 20:18:00,73.9,32.7,30.15,South,188,2.0,7.4,22,0.00,,,-99.99,FreeWX 2.05,2013-05-15 00:18:00,
2013-05-14 20:28:00,73.6,33.4,30.15,South,177,2.0,7.4,23,0.00,,,-99.99,FreeWX 2.05,2013-05-15 00:28:00,
2013-05-14 20:38:00,73.4,33.3,30.18,South,188,1.0,6.3,23,0.00,,,-99.99,FreeWX 2.05,2013-05-15 00:38:00,
2013-05-14 20:48:00,73.0,33.1,30.18,South,186,1.0,4.9,23,0.00,,,-99.99,FreeWX 2.05,2013-05-15 00:48:00,
2013-05-14 20:58:00,72.9,34.0,30.18,South,186,1.0,6.9,24,0.00,,,-99.99,FreeWX 2.05,2013-05-15 00:58:00,
2013-05-14 21:08:00,72.9,34.0,30.18,SSE,166,1.0,4.9,24,0.00,,,-99.99,FreeWX 2.05,2013-05-15 01:08:00,
2013-05-14 21:18:00,72.7,34.9,30.18,North,-999,0.0,5.8,25,0.00,,,-99.99,FreeWX 2.05,2013-05-15 01:18:00,
2013-05-14 21:28:00,72.5,35.6,30.18,North,-999,0.0,4.9,26,0.00,,,-99.99,FreeWX 2.05,2013-05-15 01:28:00,
2013-05-14 21:38:00,72.1,35.4,30.18,North,-999,0.0,4.0,26,0.00,,,-99.99,FreeWX 2.05,2013-05-15 01:38:00,
2013-05-14 21:48:00,72.0,36.1,30.18,North,-999,0.0,4.9,27,0.00,,,-99.99,FreeWX 2.05,2013-05-15 01:48:00,
2013-05-14 21:58:00,71.8,36.9,30.18,North,-999,0.0,4.0,28,0.00,,,-99.99,FreeWX 2.05,2013-05-15 01:58:00,
2013-05-14 22:08:00,71.6,37.6,30.18,North,-999,0.0,3.1,29,0.00,,,-99.99,FreeWX 2.05,2013-05-15 02:08:00,
2013-05-14 22:18:00,71.4,38.3,30.21,North,-999,0.0,3.6,30,0.00,,,-99.99,FreeWX 2.05,2013-05-15 02:18:00,
2013-05-14 22:28:00,71.4,39.2,30.21,North,-999,0.0,4.5,31,0.00,,,-99.99,FreeWX 2.05,2013-05-15 02:28:00,
2013-05-14 22:38:00,71.2,39.0,30.21,North,-999,0.0,2.7,31,0.00,,,-99.99,FreeWX 2.05,2013-05-15 02:38:00,
2013-05-14 22:48:00,71.1,39.7,30.18,North,-999,0.0,0.0,32,0.00,,,-99.99,FreeWX 2.05,2013-05-15 02:48:00,
2013-05-14 22:58:00,70.9,39.6,30.18,North,-999,0.0,3.6,32,0.00,,,-99.99,FreeWX 2.05,2013-05-15 02:58:00,
2013-05-14 23:08:00,70.9,39.6,30.18,North,-999,0.0,0.0,32,0.00,,,-99.99,FreeWX 2.05,2013-05-15 03:08:00,
2013-05-14 23:18:00,70.5,40.1,30.21,North,-999,0.0,0.0,33,0.00,,,-99.99,FreeWX 2.05,2013-05-15 03:18:00,
2013-05-14 23:28:00,70.3,40.6,30.21,SSW,198,1.0,4.0,34,0.00,,,-99.99,FreeWX 2.05,2013-05-15 03:28:00,
2013-05-14 23:38:00,70.7,41.7,30.21,North,-999,0.0,4.0,35,0.00,,,-99.99,FreeWX 2.05,2013-05-15 03:38:00,
2013-05-14 23:48:00,70.7,41.7,30.21,North,-999,0.0,2.7,35,0.00,,,-99.99,FreeWX 2.05,2013-05-15 03:48:00,
2013-05-14 23:58:00,70.5,41.5,30.21,North,-999,0.0,0.0,35,0.00,,,-99.99,FreeWX 2.05,2013-05-15 03:58:00,